Weather History for Corinth, MS

Change the Weather History Date:

Saturday, February 8, 2014

  Actual Average Record
Temperature  
Mean Temperature 34 °F -  
Max Temperature 41 °F 49 °F 79 °F (1937)
Min Temperature 28 °F 27 °F 9 °F (1933)
Degree Days  
Heating Degree Days 30    
Moisture  
Dew Point 29 °F    
Average Humidity 82    
Maximum Humidity 93    
Minimum Humidity 69    
Precipitation  
Precipitation 0.00 in - - ()
Sea Level Pressure  
Sea Level Pressure 30.22 in    
Wind  
Wind Speed 2 mph (SSE)    
Max Wind Speed 7 mph    
Max Gust Speed -    
Visibility 8 miles    
Events Rain , Snow    
Averages and records for this station are not official NWS values.
T = Trace of Precipitation, MM = Missing Value Source: NWS Daily Summary

Daily Weather History Graph

Daily Weather History Graph

Search for Another Location

Airport:

Trip Planner

Search our weather history database for the weather conditions in past years. The results will help you decide how hot, cold, wet, or windy it might be!

Date:

Astronomy

Feb. 08, 2014 Rise Set
Actual Time 6:47 AM CST 5:30 PM CST
Civil Twilight 6:20 AM CST 5:56 PM CST
Nautical Twilight 5:51 AM CST 6:26 PM CST
Astronomical Twilight 5:21 AM CST 6:56 PM CST
Moon 12:27 PM CST (2/8) 1:56 AM CST (2/8)
Length of Visible Light 11h 35m
Length of Day
10h 43m
Waxing Gibbous, 69% of the Moon is Illuminated
Feb 8
Waxing Gibbous
Feb 14
Full
Feb 22
Last Quarter
Mar 1
New
Mar 8
First Quarter

Hourly Weather History & Observations

Time (CST) Temp. Windchill Dew Point Humidity Pressure Visibility Wind Dir Wind Speed Gust Speed Precip Events Conditions
12:10 AM 28.4 °F - 19.4 °F 69% 30.32 in 10.0 mi Calm Calm - N/A   Mostly Cloudy
12:30 AM 28.4 °F 24.6 °F 19.4 °F 69% 30.30 in 10.0 mi ESE 3.5 mph - N/A   Overcast
12:50 AM 28.4 °F 24.6 °F 19.4 °F 69% 30.29 in 10.0 mi ESE 3.5 mph - N/A   Overcast
1:10 AM 28.4 °F 24.6 °F 19.4 °F 69% 30.29 in 10.0 mi SE 3.5 mph - N/A   Mostly Cloudy
1:30 AM 28.4 °F 24.6 °F 19.4 °F 69% 30.29 in 5.0 mi ESE 3.5 mph - N/A Snow Light Snow
1:50 AM 28.4 °F 24.6 °F 23.0 °F 80% 30.28 in 3.0 mi East 3.5 mph - N/A Snow Light Snow
2:10 AM 28.4 °F 24.6 °F 23.0 °F 80% 30.27 in 4.0 mi SE 3.5 mph - N/A Snow Light Snow
2:30 AM 28.4 °F 24.6 °F 23.0 °F 80% 30.26 in 5.0 mi ESE 3.5 mph - N/A Snow Light Snow
2:50 AM 28.4 °F 24.6 °F 23.0 °F 80% 30.25 in 8.0 mi ESE 3.5 mph - N/A Snow Light Snow
3:10 AM 28.4 °F 24.6 °F 23.0 °F 80% 30.24 in 10.0 mi ENE 3.5 mph - N/A   Overcast
3:30 AM 28.4 °F 24.6 °F 23.0 °F 80% 30.23 in 10.0 mi ENE 3.5 mph - N/A   Overcast
3:50 AM 28.4 °F - 23.0 °F 80% 30.23 in 10.0 mi Calm Calm - N/A   Overcast
4:10 AM 28.4 °F - 23.0 °F 80% 30.23 in 10.0 mi Calm Calm - N/A   Overcast
4:30 AM 28.4 °F - 24.8 °F 86% 30.23 in 8.0 mi Calm Calm - N/A Rain Light Freezing Rain
4:50 AM 28.4 °F - 24.8 °F 86% 30.22 in 10.0 mi Calm Calm - N/A   Overcast
5:10 AM 28.4 °F - 24.8 °F 86% 30.22 in 10.0 mi Calm Calm - N/A   Overcast
5:30 AM 28.4 °F - 24.8 °F 86% 30.22 in 10.0 mi Calm Calm - N/A   Overcast
5:50 AM 28.4 °F 24.6 °F 24.8 °F 86% 30.23 in 10.0 mi North 3.5 mph - N/A   Overcast
6:10 AM 28.4 °F - 24.8 °F 86% 30.24 in 9.0 mi Calm Calm - N/A   Overcast
6:30 AM 28.4 °F - 24.8 °F 86% 30.25 in 8.0 mi Calm Calm - N/A   Overcast
6:50 AM 28.4 °F - 24.8 °F 86% 30.25 in 5.0 mi Calm Calm - N/A   Overcast
7:10 AM 28.4 °F - 26.6 °F 93% 30.26 in 9.0 mi Calm Calm - N/A   Overcast
7:30 AM 28.4 °F - 26.6 °F 93% 30.26 in 6.0 mi Calm Calm - N/A   Overcast
7:50 AM 28.4 °F - 26.6 °F 93% 30.27 in 6.0 mi Calm Calm - N/A   Overcast
8:10 AM 30.2 °F - 26.6 °F 86% 30.28 in 4.0 mi Calm Calm - N/A   Overcast
8:30 AM 30.2 °F - 26.6 °F 86% 30.28 in 2.0 mi Calm Calm - N/A   Overcast
8:50 AM 30.2 °F - 28.4 °F 93% 30.29 in 1.5 mi Calm Calm - N/A   Overcast
9:10 AM 30.2 °F - 28.4 °F 93% 30.29 in 1.5 mi Calm Calm - N/A   Overcast
9:30 AM 30.2 °F - 28.4 °F 93% 30.29 in 1.8 mi Calm Calm - N/A   Overcast
9:50 AM 30.2 °F - 28.4 °F 93% 30.29 in 1.0 mi Calm Calm - N/A   Overcast
10:10 AM 32.0 °F - 28.4 °F 87% 30.29 in 2.5 mi Calm Calm - N/A   Mostly Cloudy
10:30 AM 32.0 °F - 28.4 °F 87% 30.29 in 5.0 mi Calm Calm - N/A   Overcast
10:50 AM 32.0 °F - 28.4 °F 87% 30.28 in 5.0 mi Calm Calm - N/A   Overcast
11:10 AM 32.0 °F - 30.2 °F 93% 30.27 in 6.0 mi Calm Calm - N/A   Overcast
11:30 AM 33.8 °F - 30.2 °F 87% 30.27 in 7.0 mi Calm Calm - N/A   Overcast
11:50 AM 35.6 °F - 30.2 °F 81% 30.25 in 9.0 mi Calm Calm - N/A   Overcast
12:10 PM 35.6 °F - 32.0 °F 87% 30.25 in 9.0 mi Calm Calm - N/A   Overcast
12:30 PM 37.4 °F 34.9 °F 32.0 °F 81% 30.23 in 9.0 mi SSE 3.5 mph - N/A   Overcast
12:50 PM 37.4 °F 34.9 °F 32.0 °F 81% 30.21 in 10.0 mi SE 3.5 mph - N/A   Overcast
1:10 PM 37.4 °F 34.9 °F 32.0 °F 81% 30.20 in 10.0 mi SE 3.5 mph - N/A   Overcast
1:30 PM 37.4 °F 34.9 °F 32.0 °F 81% 30.20 in 10.0 mi South 3.5 mph - N/A   Overcast
1:50 PM 39.2 °F 37.0 °F 32.0 °F 75% 30.19 in 10.0 mi WSW 3.5 mph - N/A   Overcast
2:10 PM 39.2 °F 37.0 °F 32.0 °F 75% 30.18 in 10.0 mi SW 3.5 mph - N/A   Overcast
2:30 PM 39.2 °F - 32.0 °F 75% 30.18 in 10.0 mi Calm Calm - N/A   Overcast
2:50 PM 39.2 °F 37.0 °F 32.0 °F 75% 30.18 in 10.0 mi SW 3.5 mph - N/A   Overcast
3:10 PM 39.2 °F 37.0 °F 32.0 °F 75% 30.17 in 10.0 mi WSW 3.5 mph - N/A   Overcast
3:30 PM 41.0 °F 37.1 °F 32.0 °F 70% 30.17 in 10.0 mi SSW 5.8 mph - N/A   Overcast
3:50 PM 39.2 °F 34.2 °F 32.0 °F 75% 30.17 in 10.0 mi SSW 6.9 mph - N/A   Overcast
4:10 PM 39.2 °F 35.0 °F 32.0 °F 75% 30.18 in 10.0 mi SSW 5.8 mph - N/A   Overcast
4:30 PM 39.2 °F 35.9 °F 32.0 °F 75% 30.18 in 10.0 mi WSW 4.6 mph - N/A   Overcast
4:50 PM 39.2 °F - 32.0 °F 75% 30.18 in 10.0 mi Calm Calm - N/A   Overcast
5:10 PM 39.2 °F - 32.0 °F 75% 30.18 in 10.0 mi Calm Calm - N/A   Overcast
5:30 PM 39.2 °F - 32.0 °F 75% 30.18 in 10.0 mi Calm Calm - N/A   Overcast
5:50 PM 39.2 °F 37.0 °F 32.0 °F 75% 30.19 in 10.0 mi SW 3.5 mph - N/A   Overcast
6:10 PM 39.2 °F 37.0 °F 32.0 °F 75% 30.19 in 10.0 mi South 3.5 mph - N/A   Overcast
6:30 PM 37.4 °F 33.8 °F 32.0 °F 81% 30.20 in 10.0 mi SW 4.6 mph - N/A   Overcast
6:50 PM 39.2 °F 37.0 °F 32.0 °F 75% 30.20 in 10.0 mi SSW 3.5 mph - N/A   Overcast
7:10 PM 39.2 °F - 32.0 °F 75% 30.19 in 10.0 mi Calm Calm - N/A   Overcast
7:30 PM 37.4 °F 33.8 °F 32.0 °F 81% 30.18 in 10.0 mi SSE 4.6 mph - N/A   Overcast
7:50 PM 37.4 °F 34.9 °F 33.8 °F 87% 30.17 in 10.0 mi South 3.5 mph - N/A   Overcast
8:10 PM 37.4 °F 34.9 °F 33.8 °F 87% 30.16 in 10.0 mi SSE 3.5 mph - N/A   Overcast
8:30 PM 37.4 °F 34.9 °F 32.0 °F 81% 30.15 in 10.0 mi ESE 3.5 mph - N/A   Overcast
8:50 PM 35.6 °F 32.8 °F 32.0 °F 87% 30.14 in 10.0 mi SSE 3.5 mph - N/A   Scattered Clouds
9:10 PM 37.4 °F - 32.0 °F 81% 30.15 in 10.0 mi Calm Calm - N/A   Clear
9:30 PM 35.6 °F 32.8 °F 32.0 °F 87% 30.16 in 9.0 mi WSW 3.5 mph - N/A   Mostly Cloudy
9:50 PM 35.6 °F 32.8 °F 32.0 °F 87% 30.16 in 8.0 mi SE 3.5 mph - N/A   Overcast
10:10 PM 35.6 °F - 32.0 °F 87% 30.16 in 9.0 mi Calm Calm - N/A   Overcast
10:30 PM 35.6 °F 32.8 °F 32.0 °F 87% 30.16 in 9.0 mi ESE 3.5 mph - N/A   Mostly Cloudy
10:50 PM 35.6 °F - 32.0 °F 87% 30.15 in 9.0 mi Calm Calm - N/A   Scattered Clouds
11:10 PM 35.6 °F 32.8 °F 32.0 °F 87% 30.14 in 8.0 mi ESE 3.5 mph - N/A   Mostly Cloudy
11:30 PM 35.6 °F - 32.0 °F 87% 30.14 in 9.0 mi Calm Calm - N/A   Overcast
11:50 PM 35.6 °F - 32.0 °F 87% 30.14 in 10.0 mi Calm Calm - N/A   Overcast